period_start,C,m1,H,J0,J1,J2,J3,J4,J5,JA,JB,JC,JD,JJ,JK,JN,#
2018-02-27 00:03:46,0.01,5.91,0.00,19.49,22.84,26.15,14.41,49.88,1037.62,2040.99,1674.76,1969.98,2204.96,599.81,615.52,49.91,0000 0000 0000 0000 000000
2018-02-27 00:08:48,0.07,5.91,0.00,19.50,22.84,26.15,14.52,50.23,1037.61,2040.99,1674.04,1969.72,2204.57,600.32,615.94,49.96,0000 0000 0000 0000 000000
2018-02-27 00:13:49,0.04,5.92,0.00,19.53,22.84,26.15,14.44,50.08,1037.61,2040.99,1673.95,1969.11,2204.06,599.72,615.25,50.01,0000 0000 0000 0000 000000
2018-02-27 00:18:50,0.04,5.92,0.00,19.53,22.84,26.14,14.51,50.12,1037.61,2040.99,1673.26,1969.00,2203.99,599.91,615.45,50.06,0000 0000 0000 0000 000000
2018-02-27 00:23:51,0.02,5.92,0.00,19.52,22.84,26.15,14.44,50.02,1037.58,2040.99,1673.00,1968.99,2203.60,600.21,615.61,50.11,0000 0000 0000 0000 000000
2018-02-27 00:28:52,0.05,5.92,0.00,19.55,22.84,26.14,14.37,50.07,1037.52,2040.99,1672.74,1968.69,2203.03,599.78,615.29,50.16,0000 0000 0000 0000 000000
2018-02-27 00:33:54,0.05,5.93,0.00,19.57,22.84,26.14,14.41,49.99,1037.36,2040.99,1672.07,1968.09,2202.99,599.94,615.28,50.21,0000 0000 0000 0000 000000
2018-02-27 00:38:55,0.02,5.93,0.00,19.58,22.84,26.14,14.35,50.43,1037.19,2040.99,1671.93,1968.00,2202.66,599.85,615.09,50.26,0000 0000 0000 0000 000000
2018-02-27 00:43:57,0.06,5.93,0.00,19.61,22.84,26.15,14.41,50.39,1037.22,2040.99,1671.16,1967.98,2202.03,600.16,615.39,50.31,0000 0000 0000 0000 000000
2018-02-27 00:48:58,0.03,5.93,0.00,19.63,22.84,26.14,14.47,50.32,1037.28,2040.99,1671.00,1967.55,2201.98,600.08,615.23,50.36,0000 0000 0000 0000 000000
2018-02-27 00:53:59,0.08,5.93,0.00,19.65,22.85,26.16,14.45,50.25,1037.45,2040.99,1670.52,1967.03,2201.39,600.16,615.35,50.41,0000 0000 0000 0000 000000
2018-02-27 00:59:00,0.02,5.94,0.00,19.67,22.85,26.14,14.40,50.08,1037.33,2040.98,1670.01,1966.99,2201.02,600.15,615.13,50.46,0000 0000 0000 0000 000000
2018-02-27 01:04:02,0.02,5.94,0.00,19.69,22.86,26.14,14.47,50.30,1037.16,2040.98,1669.85,1966.85,2200.99,599.90,614.61,50.51,0000 0000 0000 0000 000000
2018-02-27 01:09:03,0.10,5.94,0.00,19.70,22.87,26.15,14.46,50.13,1037.14,2040.99,1669.13,1966.18,2200.35,600.12,615.23,50.57,0000 0000 0000 0000 000000
2018-02-27 01:14:04,0.01,5.94,0.00,19.71,22.87,26.16,14.44,50.08,1037.13,2040.99,1668.98,1966.00,2200.01,599.87,614.74,50.62,0000 0000 0000 0000 000000
2018-02-27 01:19:05,0.05,5.94,0.00,19.73,22.87,26.17,14.44,49.90,1037.10,2040.98,1668.33,1965.96,2199.83,599.97,614.73,50.67,0000 0000 0000 0000 000000
2018-02-27 01:24:07,0.07,5.95,0.00,19.75,22.89,26.18,14.39,49.95,1036.89,2040.98,1667.99,1965.36,2199.15,599.91,614.56,50.72,0000 0000 0000 0000 000000
2018-02-27 01:29:08,0.05,5.95,0.00,19.76,22.89,26.20,14.37,49.90,1036.74,2040.98,1667.45,1965.01,2198.98,599.75,614.26,50.77,0000 0000 0000 0000 000000
2018-02-27 01:34:09,0.03,5.95,0.00,19.79,22.90,26.20,14.44,49.85,1036.69,2040.97,1667.01,1964.98,2198.31,600.14,614.53,50.82,0000 0000 0000 0000 000000
2018-02-27 01:39:10,0.07,5.96,0.00,19.81,22.92,26.23,14.37,49.95,1036.65,2040.91,1666.52,1964.30,2197.99,599.80,614.18,50.87,0000 0000 0000 0000 000000
2018-02-27 01:44:12,0.04,5.96,0.00,19.84,22.92,26.25,14.36,49.94,1036.64,2040.88,1666.00,1964.01,2197.67,599.53,613.98,50.92,0000 0000 0000 0000 000000
2018-02-27 01:49:13,0.05,5.96,0.00,19.87,22.94,26.27,14.40,50.02,1036.64,2040.84,1665.42,1963.88,2197.03,600.03,614.40,50.97,0000 0000 0000 0000 000000
2018-02-27 01:54:14,0.04,5.96,0.00,19.91,22.95,26.27,14.43,50.17,1036.65,2040.70,1665.00,1963.15,2196.87,599.98,614.31,51.02,0000 0000 0000 0000 000000
2018-02-27 01:59:15,0.02,5.96,0.00,19.93,22.97,26.29,14.38,50.00,1036.64,2040.33,1664.48,1963.00,2196.06,600.08,614.19,51.07,0000 0000 0000 0000 000000
2018-02-27 02:04:17,0.02,5.97,0.00,19.95,22.98,26.31,14.42,50.12,1036.64,2040.26,1664.00,1962.65,2195.93,600.13,614.10,51.12,0000 0000 0000 0000 000000
2018-02-27 02:09:18,0.09,5.97,0.00,19.99,22.99,26.33,14.38,50.02,1036.64,2040.18,1663.52,1962.05,2195.13,600.14,614.19,51.17,0000 0000 0000 0000 000000
2018-02-27 02:14:20,-0.00,5.97,0.00,19.99,23.00,26.35,14.45,50.17,1036.61,2040.12,1663.00,1961.96,2194.97,600.15,614.07,51.22,0000 0000 0000 0000 000000
2018-02-27 02:19:21,0.10,5.97,0.00,20.02,23.02,26.36,14.34,50.02,1036.55,2040.06,1662.59,1961.26,2194.25,600.29,614.01,51.27,0000 0000 0000 0000 000000
2018-02-27 02:24:23,0.01,5.98,0.00,20.05,23.02,26.37,14.34,49.98,1036.52,2040.04,1662.02,1961.00,2193.99,599.95,613.97,51.32,0000 0000 0000 0000 000000
2018-02-27 02:29:24,0.06,5.98,0.00,20.06,23.04,26.37,14.39,49.93,1036.42,2040.03,1661.58,1960.87,2193.38,600.57,614.36,51.37,0000 0000 0000 0000 000000
2018-02-27 02:34:25,0.06,5.98,0.00,20.08,23.05,26.39,14.45,49.96,1036.61,2040.04,1661.01,1960.12,2193.00,600.34,614.04,51.42,0000 0000 0000 0000 000000
2018-02-27 02:39:26,0.06,5.99,0.00,20.09,23.06,26.38,14.35,50.04,1036.64,2040.03,1660.33,1959.99,2192.50,599.98,613.88,51.48,0000 0000 0000 0000 000000
2018-02-27 02:44:27,0.04,5.99,0.00,20.12,23.07,26.38,14.35,49.97,1036.63,2040.00,1659.99,1959.46,2192.01,599.70,613.44,51.53,0000 0000 0000 0000 000000
2018-02-27 02:49:28,0.07,5.99,0.00,20.12,23.08,26.39,14.37,50.01,1036.56,2040.00,1659.24,1959.01,2191.68,599.62,613.32,51.58,0000 0000 0000 0000 000000
2018-02-27 02:54:30,0.02,5.99,0.00,20.14,23.09,26.41,14.37,49.99,1036.35,2040.00,1658.96,1958.93,2191.03,599.95,613.39,51.63,0000 0000 0000 0000 000000
2018-02-27 02:59:31,0.09,6.00,0.00,20.17,23.11,26.40,14.35,50.04,1036.33,2040.00,1658.23,1958.19,2190.90,599.70,613.45,51.68,0000 0000 0000 0000 000000
2018-02-27 03:04:32,0.03,6.00,0.00,20.21,23.12,26.43,14.32,49.93,1036.40,2040.00,1657.91,1958.00,2190.09,599.86,613.45,51.73,0000 0000 0000 0000 000000
2018-02-27 03:09:33,0.07,6.00,0.00,20.23,23.13,26.45,14.41,50.08,1036.26,2040.00,1657.13,1957.68,2189.91,600.36,613.55,51.78,0000 0000 0000 0000 000000
2018-02-27 03:14:35,0.05,6.01,0.00,20.25,23.14,26.44,14.35,50.06,1036.21,2040.00,1656.93,1957.05,2189.12,600.32,613.41,51.83,0000 0000 0000 0000 000000
2018-02-27 03:19:36,0.04,6.01,0.00,20.27,23.16,26.45,14.28,50.02,1036.17,2039.99,1656.14,1956.99,2189.00,600.01,613.13,51.88,0000 0000 0000 0000 000000
2018-02-27 03:24:37,0.05,6.01,0.00,20.29,23.17,26.47,14.31,50.20,1036.16,2039.99,1655.99,1956.69,2188.50,599.84,612.95,51.93,0000 0000 0000 0000 000000
2018-02-27 03:29:39,0.07,6.02,0.00,20.31,23.18,26.49,14.37,50.19,1036.17,2039.99,1655.27,1956.05,2188.00,600.13,613.20,51.98,0000 0000 0000 0000 000000
2018-02-27 03:34:40,0.02,6.02,0.00,20.33,23.19,26.49,14.33,50.20,1036.15,2039.98,1654.99,1955.99,2187.68,599.96,613.13,52.03,0000 0000 0000 0000 000000
2018-02-27 03:39:41,0.09,6.02,0.00,20.35,23.21,26.51,14.37,49.96,1036.15,2039.96,1654.41,1955.51,2187.03,600.20,613.29,52.08,0000 0000 0000 0000 000000
2018-02-27 03:44:42,0.02,6.02,0.00,20.37,23.22,26.54,14.35,50.05,1036.12,2039.96,1653.99,1955.03,2186.91,600.14,613.11,52.13,0000 0000 0000 0000 000000
2018-02-27 03:49:44,0.05,6.03,0.00,20.39,23.24,26.53,14.35,49.94,1036.06,2039.80,1653.43,1954.96,2186.10,599.92,612.89,52.18,0000 0000 0000 0000 000000
2018-02-27 03:54:45,0.03,6.03,0.00,20.40,23.26,26.55,14.37,49.93,1036.09,2039.57,1653.01,1954.26,2185.96,600.24,613.09,52.23,0000 0000 0000 0000 000000
2018-02-27 03:59:46,0.04,6.03,0.00,20.43,23.27,26.60,14.31,49.92,1035.98,2039.46,1652.60,1954.00,2185.33,599.76,612.42,52.28,0000 0000 0000 0000 000000
2018-02-27 04:04:48,-0.00,6.03,0.00,20.46,23.29,26.60,14.37,49.84,1035.78,2039.19,1652.01,1953.89,2184.99,599.93,612.46,52.33,0000 0000 0000 0000 000000
2018-02-27 04:09:49,0.09,6.03,0.00,20.46,23.31,26.62,14.31,50.02,1035.71,2039.06,1651.52,1953.12,2184.45,599.77,612.13,52.38,0000 0000 0000 0000 000000
2018-02-27 04:14:50,0.01,6.04,0.00,20.49,23.32,26.63,14.30,50.11,1035.66,2039.01,1651.00,1952.99,2184.01,599.84,612.44,52.43,0000 0000 0000 0000 000000
2018-02-27 04:19:52,0.07,6.04,0.00,20.53,23.34,26.64,14.31,50.03,1035.66,2039.02,1650.45,1952.72,2183.80,599.84,612.07,52.49,0000 0000 0000 0000 000000
2018-02-27 04:24:53,0.06,6.04,0.00,20.55,23.36,26.68,14.31,50.06,1035.66,2039.01,1650.00,1952.04,2183.05,600.12,612.42,52.54,0000 0000 0000 0000 000000
2018-02-27 04:29:54,0.04,6.04,0.00,20.57,23.37,26.71,14.35,50.04,1035.66,2039.01,1649.50,1951.98,2182.83,599.76,612.03,52.59,0000 0000 0000 0000 000000
2018-02-27 04:34:56,0.07,6.05,0.00,20.58,23.39,26.72,14.35,49.98,1035.65,2039.00,1649.01,1951.41,2182.08,600.07,612.25,52.64,0000 0000 0000 0000 000000
2018-02-27 04:39:57,0.05,6.05,0.00,20.60,23.42,26.75,14.32,49.95,1035.65,2039.00,1648.41,1951.00,2181.82,600.12,612.34,52.69,0000 0000 0000 0000 000000
2018-02-27 04:44:58,0.06,6.05,0.00,20.64,23.44,26.78,14.32,50.08,1035.65,2038.98,1648.01,1950.55,2181.06,599.98,611.94,52.74,0000 0000 0000 0000 000000
2018-02-27 04:50:00,0.06,6.06,0.00,20.64,23.46,26.79,14.33,50.07,1035.66,2038.96,1647.49,1950.02,2180.83,600.23,612.33,52.79,0000 0000 0000 0000 000000
2018-02-27 04:55:01,0.04,6.06,0.00,20.67,23.48,26.81,14.36,50.10,1035.66,2038.96,1646.98,1949.86,2180.07,599.97,612.04,52.84,0000 0000 0000 0000 000000
2018-02-27 05:00:02,0.08,6.06,0.00,20.68,23.50,26.85,14.29,49.94,1035.66,2038.89,1646.36,1949.12,2179.81,599.78,611.79,52.89,0000 0000 0000 0000 000000
2018-02-27 05:05:04,-0.01,6.07,0.00,20.69,23.52,26.85,14.30,49.94,1035.66,2038.62,1646.00,1948.99,2179.05,600.09,612.01,52.94,0000 0000 0000 0000 000000
2018-02-27 05:10:05,0.05,6.06,0.00,20.71,23.54,26.88,14.30,49.98,1035.66,2038.16,1645.33,1948.41,2178.76,599.92,611.75,52.99,0000 0000 0000 0000 000000
2018-02-27 05:15:06,0.02,6.07,0.00,20.73,23.56,26.90,14.24,49.83,1035.66,2038.04,1644.98,1948.01,2178.03,599.22,611.10,53.04,0000 0000 0000 0000 000000
2018-02-27 05:20:08,0.06,6.07,0.00,20.74,23.58,26.93,14.28,49.92,1035.64,2038.02,1644.33,1947.81,2177.77,599.77,611.62,53.09,0000 0000 0000 0000 000000
2018-02-27 05:25:09,0.06,6.07,0.00,20.75,23.60,26.94,14.30,50.04,1035.54,2038.00,1643.94,1947.08,2177.05,599.83,611.53,53.14,0000 0000 0000 0000 000000
2018-02-27 05:30:10,0.05,6.08,0.00,20.77,23.62,26.96,14.31,49.96,1035.39,2038.00,1643.18,1946.97,2176.77,599.90,611.73,53.19,0000 0000 0000 0000 000000
2018-02-27 05:35:11,0.06,6.08,0.00,20.79,23.64,26.97,14.35,49.92,1035.29,2038.00,1642.98,1946.41,2176.06,600.03,611.66,53.24,0000 0000 0000 0000 000000
2018-02-27 05:40:12,0.06,6.08,0.00,20.81,23.66,27.00,14.32,49.80,1035.23,2038.00,1642.24,1946.01,2175.86,600.03,611.44,53.29,0000 0000 0000 0000 000000
2018-02-27 05:45:14,0.04,6.09,0.00,20.83,23.68,27.02,14.35,49.88,1035.21,2038.00,1641.95,1945.82,2175.16,600.47,611.97,53.34,0000 0000 0000 0000 000000
2018-02-27 05:50:15,0.07,6.09,0.00,20.84,23.70,27.02,14.34,50.05,1035.18,2037.99,1641.22,1945.10,2174.99,599.95,611.38,53.40,0000 0000 0000 0000 000000
2018-02-27 05:55:16,0.02,6.09,0.00,20.86,23.72,27.05,14.32,50.12,1035.17,2037.98,1640.94,1944.98,2174.52,599.57,610.97,53.45,0000 0000 0000 0000 000000
2018-02-27 06:00:17,0.09,6.10,0.00,20.87,23.73,27.07,14.26,50.02,1035.17,2037.96,1640.13,1944.47,2174.00,599.42,610.71,53.50,0000 0000 0000 0000 000000
2018-02-27 06:05:19,0.04,6.10,0.00,20.87,23.75,27.08,14.38,50.11,1035.16,2037.87,1639.76,1944.01,2173.46,600.39,611.68,53.55,0000 0000 0000 0000 000000
2018-02-27 06:10:21,0.03,6.10,0.00,20.86,23.77,27.09,14.25,50.10,1035.16,2037.65,1639.05,1943.81,2173.01,599.55,610.82,53.60,0000 0000 0000 0000 000000
2018-02-27 06:15:22,0.05,6.10,0.00,20.85,23.78,27.11,14.29,50.10,1035.16,2037.31,1638.49,1943.09,2172.38,599.67,611.00,53.65,0000 0000 0000 0000 000000
2018-02-27 06:20:23,0.01,6.10,0.00,20.84,23.80,27.12,14.28,50.03,1035.13,2037.16,1638.00,1942.97,2172.00,599.88,611.50,53.70,0000 0000 0000 0000 000000
2018-02-27 06:25:25,0.09,6.11,0.00,20.86,23.81,27.13,14.27,50.08,1035.11,2037.05,1637.51,1942.24,2171.49,600.03,611.39,53.75,0000 0000 0000 0000 000000
2018-02-27 06:30:26,0.02,6.11,0.00,20.85,23.82,27.14,14.31,50.00,1035.08,2037.03,1636.99,1942.00,2171.01,599.67,610.95,53.80,0000 0000 0000 0000 000000
2018-02-27 06:35:27,0.05,6.11,0.00,20.85,23.84,27.15,14.39,50.05,1035.15,2037.02,1636.64,1941.87,2170.67,600.16,611.55,53.85,0000 0000 0000 0000 000000
2018-02-27 06:40:29,0.07,6.12,0.00,20.84,23.85,27.16,14.36,49.99,1035.17,2037.02,1636.02,1941.12,2170.03,600.11,611.47,53.90,0000 0000 0000 0000 000000
2018-02-27 06:45:30,0.05,6.12,0.00,20.85,23.87,27.17,14.24,50.09,1035.17,2037.00,1635.59,1941.00,2169.69,599.76,611.24,53.95,0000 0000 0000 0000 000000
2018-02-27 06:50:31,0.07,6.12,0.00,20.87,23.87,27.17,14.30,50.07,1035.17,2037.00,1635.01,1940.52,2169.04,599.75,611.11,54.00,0000 0000 0000 0000 000000
2018-02-27 06:55:33,0.05,6.12,0.00,20.88,23.88,27.18,14.35,50.12,1035.17,2037.00,1634.47,1940.02,2168.80,600.27,611.53,54.05,0000 0000 0000 0000 000000
2018-02-27 07:00:34,0.04,6.13,0.00,20.89,23.90,27.19,14.33,50.16,1035.14,2037.00,1633.98,1939.84,2168.06,600.39,611.67,54.10,0000 0000 0000 0000 000000
2018-02-27 07:05:35,0.09,6.13,0.00,20.88,23.90,27.21,14.30,50.12,1034.89,2037.00,1633.25,1939.09,2167.79,599.61,610.59,54.15,0000 0000 0000 0000 000000
2018-02-27 07:10:36,0.02,6.13,0.00,20.89,23.91,27.22,14.29,50.18,1034.95,2036.99,1632.96,1938.99,2167.05,600.06,611.25,54.20,0000 0000 0000 0000 000000
2018-02-27 07:15:37,0.09,6.14,0.00,20.88,23.92,27.21,14.30,50.38,1035.05,2036.99,1632.20,1938.52,2166.95,599.89,611.10,54.25,0000 0000 0000 0000 000000
2018-02-27 07:20:39,0.04,6.14,0.00,20.89,23.92,27.22,14.36,50.55,1035.10,2036.99,1631.96,1938.02,2166.16,600.19,611.30,54.30,0000 0000 0000 0000 000000
2018-02-27 07:25:40,0.04,6.14,0.00,20.87,23.92,27.21,14.40,50.38,1035.16,2036.99,1631.19,1937.96,2165.99,600.41,611.74,54.35,0000 0000 0000 0000 000000
2018-02-27 07:30:41,0.07,6.14,0.00,20.86,23.92,27.22,14.34,50.19,1035.17,2036.99,1630.94,1937.37,2165.47,599.85,611.24,54.41,0000 0000 0000 0000 000000
2018-02-27 07:35:42,0.05,6.15,0.00,20.86,23.93,27.23,14.29,50.25,1034.96,2036.99,1630.21,1937.01,2165.00,599.74,610.98,54.46,0000 0000 0000 0000 000000
2018-02-27 07:40:43,0.02,6.15,0.00,20.85,23.94,27.22,14.34,50.21,1035.05,2036.98,1629.96,1936.94,2164.73,599.99,611.35,54.51,0000 0000 0000 0000 000000
2018-02-27 07:45:45,0.10,6.16,0.00,20.83,23.94,27.22,14.34,50.13,1035.09,2036.99,1629.23,1936.28,2164.05,599.97,611.17,54.56,0000 0000 0000 0000 000000
2018-02-27 07:50:46,0.00,6.16,0.00,20.83,23.95,27.23,14.37,50.12,1035.03,2036.99,1628.99,1936.00,2163.99,599.82,611.06,54.61,0000 0000 0000 0000 000000
2018-02-27 07:55:48,0.07,6.16,0.00,20.81,23.95,27.20,14.34,50.17,1034.77,2036.99,1628.45,1935.98,2163.40,600.22,611.42,54.66,0000 0000 0000 0000 000000
2018-02-27 08:00:49,0.05,6.16,0.00,20.82,23.95,27.20,14.31,50.29,1034.73,2036.98,1628.01,1935.41,2163.00,599.79,610.99,54.71,0000 0000 0000 0000 000000
2018-02-27 08:05:50,0.06,6.16,0.00,20.83,23.95,27.21,14.29,50.14,1034.77,2036.98,1627.57,1935.01,2162.66,599.96,611.16,54.76,0000 0000 0000 0000 000000
2018-02-27 08:10:52,0.03,6.17,0.00,20.82,23.95,27.19,14.32,50.01,1034.74,2036.99,1627.01,1934.96,2162.04,599.95,611.17,54.81,0000 0000 0000 0000 000000
2018-02-27 08:15:53,0.06,6.17,0.00,20.82,23.95,27.20,14.32,50.07,1034.78,2036.98,1626.76,1934.40,2161.95,600.00,611.16,54.86,0000 0000 0000 0000 000000
2018-02-27 08:20:54,0.06,6.17,0.00,20.82,23.95,27.19,14.30,50.04,1034.79,2036.97,1626.04,1934.02,2161.23,600.56,611.78,54.91,0000 0000 0000 0000 000000
2018-02-27 08:25:56,0.02,6.18,0.00,20.81,23.95,27.18,14.28,50.00,1034.88,2036.99,1625.79,1933.94,2160.99,599.92,611.11,54.96,0000 0000 0000 0000 000000
2018-02-27 08:30:57,0.10,6.18,0.00,20.80,23.95,27.20,14.27,50.09,1035.08,2036.98,1625.05,1933.28,2160.56,600.06,611.48,55.01,0000 0000 0000 0000 000000
2018-02-27 08:35:58,0.02,6.18,0.00,20.81,23.95,27.19,14.30,50.05,1034.79,2036.97,1624.93,1933.01,2160.02,599.87,611.09,55.06,0000 0000 0000 0000 000000
2018-02-27 08:41:00,0.04,6.18,0.00,20.81,23.95,27.19,14.26,50.10,1034.69,2036.98,1624.11,1932.98,2159.94,599.57,610.69,55.11,0000 0000 0000 0000 000000
2018-02-27 08:46:01,0.07,6.19,0.00,20.80,23.95,27.18,14.34,50.11,1034.68,2036.97,1623.97,1932.38,2159.32,600.23,611.38,55.16,0000 0000 0000 0000 000000
2018-02-27 08:51:03,0.05,6.19,0.00,20.80,23.95,27.19,14.33,50.08,1034.68,2036.97,1623.27,1932.01,2159.00,600.17,611.23,55.21,0000 0000 0000 0000 000000
2018-02-27 08:56:04,0.01,6.19,0.00,20.81,23.95,27.18,14.23,50.01,1034.68,2036.97,1623.00,1931.99,2158.76,599.47,610.69,55.26,0000 0000 0000 0000 000000
2018-02-27 09:01:06,0.08,6.19,0.00,20.80,23.95,27.18,14.27,49.93,1034.70,2036.97,1622.59,1931.63,2158.07,599.82,610.92,55.31,0000 0000 0000 0000 000000
2018-02-27 09:06:07,0.03,6.20,0.00,20.81,23.95,27.18,14.32,49.98,1034.68,2036.98,1622.01,1931.04,2157.98,599.74,610.86,55.37,0000 0000 0000 0000 000000
2018-02-27 09:11:08,0.04,6.20,0.00,20.81,23.95,27.18,14.37,49.93,1034.68,2036.98,1621.79,1930.99,2157.46,600.37,611.52,55.42,0000 0000 0000 0000 000000
2018-02-27 09:16:09,0.06,6.20,0.00,20.80,23.95,27.18,14.41,49.98,1034.68,2036.98,1621.06,1930.76,2157.01,600.50,611.68,55.47,0000 0000 0000 0000 000000
2018-02-27 09:21:10,0.04,6.21,0.00,20.81,23.95,27.18,14.32,50.10,1034.68,2036.96,1620.92,1930.08,2156.79,600.08,611.28,55.52,0000 0000 0000 0000 000000
2018-02-27 09:26:12,0.06,6.21,0.00,20.81,23.95,27.17,14.32,49.98,1034.67,2036.98,1620.16,1930.00,2156.06,600.16,611.26,55.57,0000 0000 0000 0000 000000
2018-02-27 09:31:13,0.02,6.21,0.00,20.82,23.95,27.19,14.34,50.04,1034.64,2036.98,1619.96,1929.79,2155.99,599.96,610.97,55.62,0000 0000 0000 0000 000000
2018-02-27 09:36:15,0.10,6.21,0.00,20.82,23.95,27.19,14.45,50.07,1034.67,2036.97,1619.20,1929.08,2155.43,600.34,611.34,55.67,0000 0000 0000 0000 000000
2018-02-27 09:41:16,0.01,6.22,0.00,20.82,23.95,27.20,14.36,50.11,1034.53,2036.98,1618.99,1929.00,2155.02,600.29,611.18,55.72,0000 0000 0000 0000 000000
2018-02-27 09:46:18,0.05,6.22,0.00,20.81,23.95,27.21,14.32,49.98,1034.27,2036.96,1618.38,1928.87,2154.85,599.92,610.81,55.77,0000 0000 0000 0000 000000
2018-02-27 09:51:19,0.07,6.22,0.00,20.82,23.95,27.21,14.31,50.04,1034.37,2036.96,1618.00,1928.11,2154.09,599.91,610.82,55.82,0000 0000 0000 0000 000000
2018-02-27 09:56:20,0.04,6.22,0.00,20.82,23.95,27.22,14.20,50.02,1034.44,2036.96,1617.49,1928.00,2153.99,599.50,610.59,55.87,0000 0000 0000 0000 000000
2018-02-27 10:01:21,0.05,6.23,0.00,20.83,23.96,27.21,14.26,50.09,1034.37,2036.96,1617.00,1927.76,2153.38,599.65,610.51,55.92,0000 0000 0000 0000 000000
2018-02-27 10:06:23,0.07,6.23,0.00,20.83,23.97,27.21,14.32,50.06,1034.49,2036.97,1616.59,1927.07,2153.00,599.94,610.93,55.97,0000 0000 0000 0000 000000
2018-02-27 10:11:24,0.03,6.23,0.00,20.85,23.97,27.22,14.32,49.98,1034.42,2036.94,1616.01,1926.99,2152.70,600.07,610.93,56.02,0000 0000 0000 0000 000000
2018-02-27 10:16:25,0.08,6.23,0.00,20.84,23.97,27.22,14.30,50.01,1034.47,2036.92,1615.60,1926.67,2152.04,599.87,610.90,56.07,0000 0000 0000 0000 000000
2018-02-27 10:21:26,0.03,6.24,0.00,20.85,23.97,27.22,14.26,50.13,1034.30,2036.84,1615.02,1926.04,2151.78,599.38,610.20,56.12,0000 0000 0000 0000 000000
2018-02-27 10:26:28,0.04,6.24,0.00,20.85,23.97,27.22,14.35,50.02,1034.21,2036.83,1614.68,1925.97,2151.08,599.99,610.78,56.17,0000 0000 0000 0000 000000
2018-02-27 10:31:29,0.05,6.24,0.00,20.86,23.97,27.23,14.31,50.11,1034.21,2036.76,1614.02,1925.40,2150.97,599.68,610.38,56.23,0000 0000 0000 0000 000000
2018-02-27 10:36:31,0.07,6.25,0.00,20.84,23.97,27.22,14.31,49.93,1034.20,2036.69,1613.71,1925.01,2150.21,599.96,610.72,56.28,0000 0000 0000 0000 000000
2018-02-27 10:41:32,0.03,6.25,0.00,20.85,23.97,27.23,14.32,50.13,1034.18,2036.87,1613.03,1924.99,2150.00,600.72,611.59,56.33,0000 0000 0000 0000 000000
2018-02-27 10:46:34,0.08,6.25,0.00,20.85,23.98,27.21,14.32,50.07,1034.13,2036.93,1612.74,1924.48,2149.77,600.36,611.09,56.38,0000 0000 0000 0000 000000
2018-02-27 10:51:35,0.06,6.26,0.00,20.86,23.99,27.24,14.41,50.09,1034.09,2036.94,1612.04,1924.02,2149.07,600.53,611.21,56.43,0000 0000 0000 0000 000000
2018-02-27 10:56:36,0.00,6.26,0.00,20.86,24.00,27.25,14.29,50.02,1033.97,2036.87,1611.83,1923.99,2148.97,599.65,610.29,56.48,0000 0000 0000 0000 000000
2018-02-27 11:01:37,0.08,6.26,0.00,20.85,24.00,27.24,14.34,50.23,1033.78,2036.71,1611.08,1923.40,2148.28,599.95,610.52,56.53,0000 0000 0000 0000 000000
2018-02-27 11:06:39,0.00,6.26,0.00,20.85,24.00,27.25,14.38,50.39,1033.72,2036.62,1610.93,1923.02,2148.00,600.17,610.68,56.58,0000 0000 0000 0000 000000
2018-02-27 11:11:40,0.07,6.27,0.00,20.84,24.00,27.25,14.31,50.39,1033.71,2036.78,1610.15,1922.99,2147.80,600.01,610.46,56.63,0000 0000 0000 0000 000000
2018-02-27 11:16:42,0.06,6.27,0.00,20.85,24.00,27.25,14.32,50.30,1033.71,2036.82,1609.97,1922.55,2147.08,599.91,610.41,56.68,0000 0000 0000 0000 000000
2018-02-27 11:21:43,0.06,6.27,0.00,20.87,24.01,27.28,14.25,50.18,1033.71,2036.81,1609.28,1922.02,2146.99,599.86,610.31,56.73,0000 0000 0000 0000 000000
2018-02-27 11:26:44,-0.01,6.27,0.00,20.84,24.02,27.26,14.34,50.11,1033.71,2036.58,1608.98,1921.98,2146.56,600.45,611.04,56.78,0000 0000 0000 0000 000000
2018-02-27 11:31:45,0.09,6.28,0.00,20.84,24.02,27.26,14.37,50.21,1033.68,2036.63,1608.51,1921.66,2146.02,600.14,610.58,56.83,0000 0000 0000 0000 000000
2018-02-27 11:36:46,0.01,6.28,0.00,20.85,24.02,27.28,14.27,50.17,1033.44,2036.51,1608.01,1921.06,2145.96,599.38,609.92,56.88,0000 0000 0000 0000 000000
2018-02-27 11:41:48,0.02,6.28,0.00,20.84,24.02,27.29,14.29,50.25,1033.32,2036.37,1607.87,1921.00,2145.28,600.13,610.32,56.93,0000 0000 0000 0000 000000
2018-02-27 11:46:49,0.04,6.28,0.00,20.83,24.04,27.28,14.35,50.24,1033.34,2036.28,1607.09,1920.85,2145.01,600.44,610.83,56.98,0000 0000 0000 0000 000000
2018-02-27 11:51:51,0.05,6.28,0.00,20.85,24.04,27.29,14.34,50.30,1033.45,2036.20,1606.96,1920.11,2144.68,600.23,610.66,57.03,0000 0000 0000 0000 000000
2018-02-27 11:56:52,0.05,6.29,0.00,20.84,24.05,27.29,14.31,50.27,1033.50,2036.11,1606.27,1920.00,2144.04,600.08,610.63,57.08,0000 0000 0000 0000 000000
2018-02-27 12:01:53,0.00,6.29,0.00,20.83,24.05,27.28,14.35,50.29,1033.27,2036.09,1605.99,1919.97,2143.99,600.21,610.45,57.13,0000 0000 0000 0000 000000
2018-02-27 12:06:55,0.10,6.29,0.00,20.84,24.05,27.30,14.35,50.32,1033.23,2036.08,1605.44,1919.39,2143.44,600.24,610.45,57.18,0000 0000 0000 0000 000000
2018-02-27 12:11:56,0.11,6.30,0.00,20.84,24.05,27.28,14.29,50.34,1033.23,2036.07,1604.65,1918.74,2142.49,599.94,610.14,57.23,0000 0000 0000 0000 000000
2018-02-27 12:16:57,0.05,6.30,0.00,20.85,24.05,27.28,14.33,50.35,1033.22,2036.08,1604.03,1918.10,2142.02,599.96,610.20,57.29,0000 0000 0000 0000 000000
2018-02-27 12:21:59,0.00,6.30,0.00,20.83,24.05,27.28,14.20,50.28,1033.20,2036.04,1603.98,1918.00,2141.97,599.56,609.81,57.34,0000 0000 0000 0000 000000
2018-02-27 12:27:00,0.06,6.30,0.00,20.81,24.05,27.29,14.30,50.27,1033.03,2036.05,1603.37,1917.98,2141.49,599.90,610.10,57.39,0000 0000 0000 0000 000000
2018-02-27 12:32:01,0.04,6.31,0.00,20.81,24.06,27.29,14.32,50.27,1032.75,2036.09,1603.00,1917.60,2141.02,599.99,610.02,57.44,0000 0000 0000 0000 000000
2018-02-27 12:37:03,0.04,6.31,0.00,20.83,24.06,27.29,14.26,50.33,1032.74,2036.04,1602.65,1917.03,2140.98,599.92,609.82,57.49,0000 0000 0000 0000 000000
2018-02-27 12:42:04,0.04,6.31,0.00,20.82,24.06,27.29,14.37,50.22,1032.73,2036.05,1602.03,1917.00,2140.61,600.17,610.20,57.54,0000 0000 0000 0000 000000
2018-02-27 12:47:05,0.01,6.31,0.00,20.80,24.07,27.29,14.31,50.22,1032.73,2036.03,1601.98,1916.97,2140.03,599.97,610.02,57.59,0000 0000 0000 0000 000000
2018-02-27 12:52:06,0.08,6.31,0.00,20.81,24.07,27.28,14.36,50.23,1032.72,2036.05,1601.40,1916.37,2140.00,600.26,609.98,57.64,0000 0000 0000 0000 000000
2018-02-27 12:57:07,0.03,6.32,0.00,20.80,24.07,27.28,14.35,50.50,1032.71,2036.04,1601.01,1916.01,2139.63,600.04,610.12,57.69,0000 0000 0000 0000 000000